Location: Unspecified
(35.6961°N, 0.0000°E)
Time: 23:53:32
(UTC+00:00)

Explorer 11/Cluster Stage 4 - Pass Details

Date: 30 May 2019
Orbit: 467 x 1260 km, 28.8° (Epoch: 26 June)

Event Time Altitude Azimuth Distance (km) Brightness Sun altitude
Rises 04:08:51 0° 266° (W) 3,509 - -7.4°
Exits shadow 04:10:46 - 260° (W) 2,840 8.9 -7.1°
Reaches altitude 10° 04:12:02 10° 255° (WSW) 2,412 8.5 -6.8°
Maximum altitude 04:16:41 27° 199° (SSW) 1,358 7.4 -6.0°
Drops below altitude 10° 04:20:35 10° 142° (SE) 1,988 8.8 -5.4°
Sets 04:22:58 0° 129° (SE) 2,781 9.7 -5.0°
